TimeEDT,TemperatureF,Dew PointF,Humidity,Sea Level PressureIn,VisibilityMPH,Wind Direction,Wind SpeedMPH,Gust SpeedMPH,PrecipitationIn,Events,Conditions,WindDirDegrees,DateUTC
12:15 AM,64.4,64.4,100,29.75,7.0,Calm,Calm,-,N/A,,Scattered Clouds,0,2013-06-29 04:15:00
12:35 AM,64.4,64.4,100,29.74,6.0,Calm,Calm,-,N/A,,Partly Cloudy,0,2013-06-29 04:35:00
12:55 AM,64.4,64.4,100,29.74,7.0,Calm,Calm,-,N/A,,Partly Cloudy,0,2013-06-29 04:55:00
1:15 AM,64.4,62.6,94,29.73,5.0,Calm,Calm,-,N/A,,Mostly Cloudy,0,2013-06-29 05:15:00
1:35 AM,64.4,64.4,100,29.72,8.0,Calm,Calm,-,N/A,,Overcast,0,2013-06-29 05:35:00
1:55 AM,64.4,64.4,100,29.72,10.0,Calm,Calm,-,N/A,,Overcast,0,2013-06-29 05:55:00
2:15 AM,64.4,64.4,100,29.72,10.0,Calm,Calm,-,N/A,,Overcast,0,2013-06-29 06:15:00
2:35 AM,64.4,64.4,100,29.71,10.0,Calm,Calm,-,N/A,,Overcast,0,2013-06-29 06:35:00
2:55 AM,64.4,64.4,100,29.70,10.0,Calm,Calm,-,N/A,,Mostly Cloudy,0,2013-06-29 06:55:00
3:15 AM,64.4,62.6,94,29.71,9.0,Calm,Calm,-,N/A,,Partly Cloudy,0,2013-06-29 07:15:00
3:35 AM,62.6,62.6,100,29.70,5.0,Calm,Calm,-,N/A,,Clear,0,2013-06-29 07:35:00
3:55 AM,62.6,62.6,100,29.70,5.0,Calm,Calm,-,N/A,,Clear,0,2013-06-29 07:55:00
4:15 AM,62.6,62.6,100,29.70,5.0,Calm,Calm,-,N/A,,Clear,0,2013-06-29 08:15:00
4:35 AM,62.6,62.6,100,29.71,6.0,Calm,Calm,-,N/A,,Scattered Clouds,0,2013-06-29 08:35:00
4:55 AM,62.6,62.6,100,29.71,7.0,Calm,Calm,-,N/A,,Overcast,0,2013-06-29 08:55:00
5:15 AM,62.6,62.6,100,29.72,8.0,Calm,Calm,-,N/A,,Overcast,0,2013-06-29 09:15:00
5:35 AM,62.6,62.6,100,29.72,8.0,Calm,Calm,-,N/A,,Overcast,0,2013-06-29 09:35:00
5:55 AM,62.6,62.6,100,29.72,8.0,Calm,Calm,-,N/A,,Overcast,0,2013-06-29 09:55:00
6:15 AM,64.4,62.6,94,29.73,9.0,Calm,Calm,-,N/A,,Overcast,0,2013-06-29 10:15:00
6:35 AM,64.4,64.4,100,29.73,10.0,Calm,Calm,-,N/A,,Overcast,0,2013-06-29 10:35:00
6:55 AM,64.4,64.4,100,29.73,10.0,NW,4.6,-,N/A,,Overcast,310,2013-06-29 10:55:00
7:15 AM,64.4,64.4,100,29.74,10.0,Calm,Calm,-,N/A,,Overcast,0,2013-06-29 11:15:00
7:35 AM,64.4,64.4,100,29.73,10.0,ENE,3.5,-,N/A,,Overcast,60,2013-06-29 11:35:00
7:55 AM,66.2,64.4,94,29.74,10.0,Calm,Calm,-,N/A,,Scattered Clouds,0,2013-06-29 11:55:00
8:15 AM,66.2,64.4,94,29.74,10.0,Calm,Calm,-,N/A,,Mostly Cloudy,0,2013-06-29 12:15:00
8:35 AM,68.0,64.4,88,29.74,10.0,Calm,Calm,-,N/A,,Scattered Clouds,0,2013-06-29 12:35:00
8:55 AM,71.6,64.4,78,29.74,10.0,Variable,4.6,-,N/A,,Clear,0,2013-06-29 12:55:00
9:15 AM,71.6,64.4,78,29.74,10.0,West,8.1,-,N/A,,Mostly Cloudy,270,2013-06-29 13:15:00
9:35 AM,71.6,64.4,78,29.74,10.0,SW,5.8,-,N/A,,Partly Cloudy,220,2013-06-29 13:35:00
9:55 AM,73.4,62.6,69,29.74,10.0,Variable,6.9,-,N/A,,Mostly Cloudy,0,2013-06-29 13:55:00
10:15 AM,73.4,64.4,73,29.74,10.0,West,6.9,-,N/A,,Mostly Cloudy,270,2013-06-29 14:15:00
10:35 AM,73.4,64.4,73,29.74,10.0,WSW,9.2,-,N/A,,Mostly Cloudy,250,2013-06-29 14:35:00
10:55 AM,73.4,62.6,69,29.74,10.0,West,9.2,-,N/A,,Mostly Cloudy,260,2013-06-29 14:55:00
11:15 AM,75.2,62.6,65,29.74,10.0,Variable,3.5,-,N/A,,Mostly Cloudy,0,2013-06-29 15:15:00
11:35 AM,75.2,64.4,69,29.73,10.0,SW,4.6,-,N/A,,Scattered Clouds,220,2013-06-29 15:35:00
11:55 AM,75.2,62.6,65,29.74,10.0,WSW,8.1,-,N/A,,Scattered Clouds,240,2013-06-29 15:55:00
12:15 PM,77.0,62.6,61,29.73,10.0,WSW,10.4,-,N/A,,Partly Cloudy,240,2013-06-29 16:15:00
12:35 PM,75.2,62.6,65,29.73,10.0,West,8.1,-,N/A,,Scattered Clouds,260,2013-06-29 16:35:00
12:55 PM,80.6,64.4,58,29.73,10.0,WNW,8.1,-,N/A,,Partly Cloudy,290,2013-06-29 16:55:00
1:15 PM,77.0,62.6,61,29.74,10.0,West,6.9,-,N/A,,Mostly Cloudy,280,2013-06-29 17:15:00
1:35 PM,78.8,60.8,54,29.74,10.0,WSW,10.4,-,N/A,,Partly Cloudy,250,2013-06-29 17:35:00
1:55 PM,80.6,59.0,48,29.73,10.0,WNW,10.4,-,N/A,,Clear,290,2013-06-29 17:55:00
2:15 PM,80.6,57.2,45,29.73,10.0,West,6.9,-,N/A,,Clear,280,2013-06-29 18:15:00
2:35 PM,80.6,55.4,42,29.73,10.0,West,8.1,-,N/A,,Clear,260,2013-06-29 18:35:00
2:55 PM,80.6,57.2,45,29.73,10.0,WSW,9.2,-,N/A,,Partly Cloudy,240,2013-06-29 18:55:00
3:15 PM,80.6,57.2,45,29.72,10.0,WSW,11.5,-,N/A,,Clear,240,2013-06-29 19:15:00
3:35 PM,80.6,59.0,48,29.72,10.0,Variable,6.9,-,N/A,,Clear,0,2013-06-29 19:35:00
3:55 PM,80.6,57.2,45,29.72,10.0,West,8.1,-,N/A,,Clear,280,2013-06-29 19:55:00
4:15 PM,80.6,55.4,42,29.72,10.0,West,10.4,-,N/A,,Clear,260,2013-06-29 20:15:00
4:35 PM,78.8,57.2,47,29.72,10.0,WSW,6.9,-,N/A,,Partly Cloudy,250,2013-06-29 20:35:00
4:55 PM,80.6,55.4,42,29.71,10.0,West,8.1,-,N/A,,Partly Cloudy,280,2013-06-29 20:55:00
5:15 PM,80.6,55.4,42,29.71,10.0,WNW,6.9,-,N/A,,Clear,300,2013-06-29 21:15:00
5:35 PM,80.6,57.2,45,29.71,10.0,West,5.8,-,N/A,,Clear,270,2013-06-29 21:35:00
5:55 PM,80.6,57.2,45,29.71,10.0,West,5.8,-,N/A,,Clear,270,2013-06-29 21:55:00
6:15 PM,80.6,55.4,42,29.70,10.0,WNW,4.6,-,N/A,,Clear,290,2013-06-29 22:15:00
6:35 PM,80.6,57.2,45,29.70,10.0,West,5.8,-,N/A,,Clear,270,2013-06-29 22:35:00
6:55 PM,80.6,57.2,45,29.71,10.0,WSW,4.6,-,N/A,,Clear,250,2013-06-29 22:55:00
7:15 PM,80.6,59.0,48,29.71,10.0,WSW,3.5,-,N/A,,Clear,250,2013-06-29 23:15:00
7:35 PM,77.0,62.6,61,29.72,10.0,Calm,Calm,-,N/A,,Clear,0,2013-06-29 23:35:00
7:55 PM,73.4,64.4,73,29.72,10.0,Calm,Calm,-,N/A,,Clear,0,2013-06-29 23:55:00
8:15 PM,69.8,64.4,83,29.73,10.0,Calm,Calm,-,N/A,,Clear,0,2013-06-30 00:15:00
8:35 PM,69.8,64.4,83,29.73,10.0,Calm,Calm,-,N/A,,Clear,0,2013-06-30 00:35:00
8:55 PM,66.2,62.6,88,29.73,10.0,Calm,Calm,-,N/A,,Clear,0,2013-06-30 00:55:00
9:15 PM,64.4,60.8,88,29.73,10.0,Calm,Calm,-,N/A,,Clear,0,2013-06-30 01:15:00
9:35 PM,66.2,60.8,83,29.74,10.0,NE,3.5,-,N/A,,Clear,40,2013-06-30 01:35:00
9:55 PM,64.4,60.8,88,29.75,10.0,Calm,Calm,-,N/A,,Clear,0,2013-06-30 01:55:00
10:15 PM,62.6,60.8,94,29.76,10.0,Variable,3.5,-,N/A,,Clear,0,2013-06-30 02:15:00
10:35 PM,62.6,59.0,88,29.77,10.0,Calm,Calm,-,N/A,,Clear,0,2013-06-30 02:35:00
10:55 PM,62.6,59.0,88,29.78,10.0,Calm,Calm,-,N/A,,Clear,0,2013-06-30 02:55:00
11:15 PM,62.6,59.0,88,29.77,10.0,Calm,Calm,-,N/A,,Clear,0,2013-06-30 03:15:00
11:35 PM,60.8,57.2,88,29.77,10.0,Calm,Calm,-,N/A,,Clear,0,2013-06-30 03:35:00
11:55 PM,62.6,57.2,82,29.77,10.0,NE,4.6,-,N/A,,Clear,40,2013-06-30 03:55:00